When you browse on this site, cookies collect data to enhance your experience and personalize the content and advertising you see.
Visit our Privacy Policy to learn more. By continuing to use the site, you agree to this use of cookies and data.
  • In Latvia
  • List of Countries
  • For 7 days
  • Water Temperature
  • Satellite Maps
  • Weather Map
  • Weather Widgets
  • user-avatar
    Login

    Hourly Weather Karmir-Asth

    Today, 21 February, Thursday

    Time Temperature Precipitation Wind Pressure Humidity
    00:00 +2°C° 0 mm 0 mps 737 mmHg 65%
    01:00 +2°C° 0 mm 0 mps 737 mmHg 65%
    02:00 +2°C° 0 mm 1 mps 737 mmHg 64%
    03:00 +2°C° 0 mm 1 mps 737 mmHg 64%
    04:00 +2°C° 0 mm 1 mps 737 mmHg 63%
    05:00 +2°C° 0 mm 1 mps 737 mmHg 62%
    06:00 +2°C° 0 mm 1 mps 736 mmHg 60%
    07:00 +2°C° 0 mm 0 mps 736 mmHg 57%
    08:00 +3°C° 0 mm 0 mps 736 mmHg 53%
    09:00 +4°C° 0 mm 0 mps 736 mmHg 50%
    10:00 +6°C° 0 mm 2 mps 736 mmHg 45%
    11:00 +9°C° 0 mm 3 mps 736 mmHg 40%
    12:00 +10°C° 0 mm 5 mps 736 mmHg 35%
    13:00 +10°C° 0 mm 6 mps 736 mmHg 36%
    14:00 +10°C° 0 mm 7 mps 736 mmHg 37%
    15:00 +10°C° 0 mm 8 mps 736 mmHg 39%
    16:00 +9°C° 0 mm 7 mps 736 mmHg 45%
    17:00 +8°C° 0 mm 6 mps 736 mmHg 51%
    18:00 +5°C° 0 mm 6 mps 736 mmHg 57%
    19:00 +5°C° 0.1 mm 6 mps 736 mmHg 61%
    20:00 +4°C° 0.1 mm 6 mps 736 mmHg 65%
    21:00 +4°C° 0.1 mm 6 mps 737 mmHg 69%
    22:00 +4°C° 0 mm 6 mps 737 mmHg 70%
    23:00 +3°C° 0 mm 6 mps 737 mmHg 71%

    Tomorrow, 22 February, Friday

    Time Temperature Precipitation Wind Pressure Humidity
    00:00 +3°C° 0 mm 6 mps 737 mmHg 73%
    01:00 +3°C° 0.1 mm 6 mps 737 mmHg 74%
    02:00 +2°C° 0.1 mm 6 mps 737 mmHg 75%
    03:00 +2°C° 0.1 mm 6 mps 737 mmHg 76%
    04:00 +2°C° 0 mm 6 mps 737 mmHg 74%
    05:00 +1°C° 0 mm 6 mps 737 mmHg 73%
    06:00 +1°C° 0 mm 6 mps 737 mmHg 71%
    07:00 +1°C° 0 mm 6 mps 738 mmHg 69%
    08:00 +1°C° 0 mm 6 mps 738 mmHg 67%
    09:00 +1°C° 0 mm 6 mps 738 mmHg 65%
    10:00 +2°C° 0 mm 6 mps 738 mmHg 60%
    11:00 +4°C° 0 mm 6 mps 738 mmHg 56%
    12:00 +5°C° 0 mm 6 mps 738 mmHg 51%
    13:00 +5°C° 0 mm 6 mps 738 mmHg 51%
    14:00 +5°C° 0 mm 6 mps 737 mmHg 51%
    15:00 +7°C° 0 mm 6 mps 737 mmHg 51%
    16:00 +6°C° 0 mm 5 mps 737 mmHg 54%
    17:00 +6°C° 0 mm 4 mps 737 mmHg 56%
    18:00 +5°C° 0 mm 3 mps 736 mmHg 59%
    19:00 +4°C° 0.1 mm 3 mps 736 mmHg 63%
    20:00 +5°C° 0.1 mm 2 mps 736 mmHg 66%
    21:00 +6°C° 0.1 mm 1 mps 736 mmHg 70%
    22:00 +5°C° 0 mm 1 mps 736 mmHg 73%
    23:00 +5°C° 0 mm 1 mps 735 mmHg 75%

    Day after tomorrow, 23 February, Saturday

    Time Temperature Precipitation Wind Pressure Humidity
    00:00 +5°C° 0 mm 1 mps 735 mmHg 78%
    01:00 +4°C° 0 mm 1 mps 735 mmHg 76%
    02:00 +4°C° 0 mm 1 mps 735 mmHg 75%
    03:00 +4°C° 0 mm 1 mps 734 mmHg 73%
    04:00 +4°C° 0 mm 1 mps 734 mmHg 69%
    05:00 +4°C° 0 mm 1 mps 734 mmHg 66%
    06:00 +4°C° 0 mm 1 mps 734 mmHg 62%
    07:00 +5°C° 0.1 mm 1 mps 734 mmHg 61%
    08:00 +5°C° 0.1 mm 1 mps 735 mmHg 60%
    09:00 +6°C° 0.1 mm 1 mps 735 mmHg 59%
    10:00 +7°C° 0.3 mm 1 mps 735 mmHg 59%
    11:00 +7°C° 0.3 mm 1 mps 735 mmHg 60%
    12:00 +8°C° 0.3 mm 1 mps 735 mmHg 61%
    13:00 +8°C° 0.4 mm 1 mps 735 mmHg 62%
    14:00 +8°C° 0.4 mm 1 mps 736 mmHg 64%
    15:00 +8°C° 0.4 mm 1 mps 736 mmHg 65%
    16:00 +8°C° 0 mm 1 mps 736 mmHg 69%
    17:00 +7°C° 0 mm 1 mps 736 mmHg 72%
    18:00 +6°C° 0 mm 1 mps 737 mmHg 76%
    19:00 +6°C° 0 mm 1 mps 737 mmHg 78%
    20:00 +6°C° 0 mm 1 mps 738 mmHg 80%
    21:00 +6°C° 0 mm 1 mps 738 mmHg 82%
    22:00 +5°C° 0.1 mm 1 mps 738 mmHg 86%
    23:00 +4°C° 0.1 mm 1 mps 739 mmHg 89%

    24 February, Sunday

    Time Temperature Precipitation Wind Pressure Humidity
    00:00 +3°C° 0.1 mm 2 mps 739 mmHg 93%
    01:00 +3°C° 0.2 mm 2 mps 739 mmHg 94%
    02:00 +2°C° 0.2 mm 2 mps 739 mmHg 94%
    03:00 +2°C° 0.2 mm 2 mps 739 mmHg 95%
    04:00 +3°C° 0.2 mm 1 mps 739 mmHg 95%
    05:00 +2°C° 0.2 mm 1 mps 740 mmHg 95%
    06:00 +2°C° 0.2 mm 1 mps 740 mmHg 95%
    07:00 +2°C° 0.1 mm 1 mps 740 mmHg 94%
    08:00 +2°C° 0.1 mm 1 mps 740 mmHg 93%
    09:00 +2°C° 0.1 mm 1 mps 741 mmHg 93%
    10:00 +3°C° 0.3 mm 1 mps 741 mmHg 92%
    11:00 +3°C° 0.3 mm 1 mps 741 mmHg 90%
    12:00 +3°C° 0.3 mm 1 mps 741 mmHg 89%
    13:00 +3°C° 0.1 mm 2 mps 741 mmHg 89%
    14:00 +3°C° 0.1 mm 2 mps 741 mmHg 88%
    15:00 +3°C° 0.1 mm 2 mps 741 mmHg 87%
    16:00 +4°C° 0.1 mm 1 mps 741 mmHg 89%
    17:00 +3°C° 0.1 mm 1 mps 741 mmHg 91%
    18:00 +3°C° 0.1 mm 1 mps 741 mmHg 93%
    19:00 +3°C° 0 mm 1 mps 741 mmHg 94%
    20:00 +3°C° 0 mm 1 mps 741 mmHg 95%
    21:00 +3°C° 0 mm 1 mps 741 mmHg 96%
    22:00 +3°C° 0 mm 1 mps 741 mmHg 96%
    23:00 +2°C° 0 mm 1 mps 741 mmHg 96%

    25 February, Monday

    Time Temperature Precipitation Wind Pressure Humidity
    00:00 +2°C° 0 mm 1 mps 741 mmHg 96%
    01:00 +2°C° 0.1 mm 1 mps 741 mmHg 97%
    02:00 +2°C° 0.1 mm 1 mps 741 mmHg 97%
    03:00 +2°C° 0.1 mm 1 mps 741 mmHg 97%
    04:00 +2°C° 0.2 mm 1 mps 740 mmHg 97%
    05:00 +2°C° 0.2 mm 1 mps 740 mmHg 97%
    06:00 +2°C° 0.2 mm 1 mps 740 mmHg 97%
    07:00 +2°C° 0.6 mm 1 mps 740 mmHg 97%
    08:00 +1°C° 0.6 mm 1 mps 740 mmHg 97%
    09:00 +1°C° 0.6 mm 1 mps 740 mmHg 97%
    10:00 -1°C° 0.2 mm 2 mps 739 mmHg 96%
    11:00 -1°C° 0.2 mm 2 mps 739 mmHg 96%
    12:00 -1°C° 0.2 mm 2 mps 738 mmHg 95%
    13:00 -1°C° 0.1 mm 2 mps 738 mmHg 95%
    14:00 -1°C° 0.1 mm 2 mps 737 mmHg 95%
    15:00 -1°C° 0.1 mm 2 mps 737 mmHg 94%
    16:00 -1°C° 0.3 mm 2 mps 736 mmHg 95%
    17:00 -1°C° 0.3 mm 2 mps 736 mmHg 95%
    18:00 -2°C° 0.3 mm 2 mps 736 mmHg 96%
    19:00 -2°C° 0.9 mm 2 mps 735 mmHg 96%
    20:00 -2°C° 0.9 mm 2 mps 735 mmHg 97%
    21:00 -2°C° 0.9 mm 2 mps 735 mmHg 97%
    22:00 -3°C° 1.1 mm 2 mps 734 mmHg 97%
    23:00 -3°C° 1.1 mm 2 mps 734 mmHg 97%

    26 February, Tuesday

    Time Temperature Precipitation Wind Pressure Humidity
    00:00 -3°C° 1.1 mm 2 mps 733 mmHg 97%
    01:00 -5°C° 1.1 mm 3 mps 733 mmHg 97%
    02:00 -6°C° 1.1 mm 3 mps 733 mmHg 97%
    03:00 -7°C° 1.1 mm 3 mps 733 mmHg 97%
    04:00 -8°C° 0.3 mm 3 mps 733 mmHg 97%
    05:00 -8°C° 0.3 mm 2 mps 732 mmHg 97%
    06:00 -8°C° 0.3 mm 1 mps 732 mmHg 97%
    07:00 -7°C° 0 mm 1 mps 732 mmHg 94%
    08:00 -6°C° 0 mm 1 mps 732 mmHg 92%
    09:00 -7°C° 0 mm 2 mps 732 mmHg 89%
    10:00 -5°C° 0 mm 2 mps 732 mmHg 87%
    11:00 -5°C° 0 mm 3 mps 731 mmHg 84%
    12:00 -4°C° 0 mm 3 mps 731 mmHg 82%
    13:00 -4°C° 0 mm 3 mps 730 mmHg 85%
    14:00 -4°C° 0 mm 3 mps 730 mmHg 87%
    15:00 -4°C° 0 mm 3 mps 729 mmHg 90%
    16:00 -5°C° 0.1 mm 3 mps 729 mmHg 91%
    17:00 -5°C° 0.1 mm 3 mps 729 mmHg 93%
    18:00 -5°C° 0.1 mm 2 mps 729 mmHg 94%
    19:00 -5°C° 0 mm 2 mps 729 mmHg 94%
    20:00 -6°C° 0 mm 2 mps 729 mmHg 93%
    21:00 -7°C° 0 mm 3 mps 729 mmHg 93%
    22:00 -7°C° 0 mm 2 mps 729 mmHg 93%
    23:00 -7°C° 0 mm 2 mps 729 mmHg 94%
    Show more